COSMOS 1275 DEB

Satellite information

Favourite Embed

Satellite Type and Status

DEBRISIN ORBIT

Key statistics

Satellite COSMOS 1275 DEB at a glance.

Uptime

16264

Days in orbit

Revolutions

≈ 14.3

Per day

Orbit

LEO

Low Earth Orbit

Inclination

82.9

Latest

Satellite identification and parameters

Extended collection of information and parameters for COSMOS 1275 DEB.

Object identification

Identified? True

Debris? True

Object name: COSMOS 1275 DEB

International designator: 1981-053GY

Object number (NORAD): 13804

Object ID (CCSDS): 13804

Country: COMMONWEALTH OF INDEPENDENT STATES (CIS)

Current information (Y/N): Y

RCS size: SMALL

Orbital parameters

Period: 100.414 minutes

Inclination: 82.9443 deg

SMA: 7156.32 km

Apoapsis: 804.586 km

Periapsis: 751.784 km

RAAN: 24.794 deg

Eccentricy: 0.00368922

Argument of periapsis: 236.2399 deg

Mean anomaly: 254.7793 deg

Mean motion: 14.34062612 rev/day

Mean motion (dot): 0.00006973 rev/day2

B* drag term: 0.0024698093 1/REarth

Two-line elements (TLE)

Creation date: Dec. 14, 2025, 3:07 a.m.

Reference frame: TEME

Reference center: EARTH

Epoch: Dec. 13, 2025, 1:08 p.m. UTC

TLE line 0: 0 COSMOS 1275 DEB

TLE line 1: 1 13804U 81053GY 25347.54776391 .00006973 00000-0 24698-2 0 9992

TLE line 2: 2 13804 82.9443 24.7940 0036892 236.2399 254.7793 14.34062612194174

Live tracking on map

Real-time ground track for satellite COSMOS 1275 DEB.

In-orbit conjunctions

A list of the most updated potential collisions computed for object COSMOS 1275 DEB.

Target Orbit TCA Probability of collision Miss distance Type
DELTA 1 DEB SSO 2025-12-16 16:02:47 0.0009497751 47.0 (m) DEBRIS
CZ-6A DEB LEO 2025-09-02 05:14:15 0.0004547803 64.0 (m) DEBRIS
SL-8 DEB LEO 2025-05-10 20:41:52 0.0002110055 140.0 (m) DEBRIS
SL-8 DEB LEO 2025-04-24 04:08:01 0.0004382688 40.0 (m) DEBRIS
IRIDIUM 33 LEO 2024-12-17 10:21:53 0.0001009904 458.0 (m) PAYLOAD

Associated space launch

Navigation satellite providing location information for the Tsiklon-B navigation system

COSMOS 1275 DEB was lifted into orbit during the mission ‘Kosmos-3M | Parus 27’, on board a Kosmos-3M space rocket.

The launch took place on June 4, 1981, 3:41 p.m. from 132/2.

For more information about the launch, click the button.

Launch to space Kosmos-3M | Parus 27
Kosmos-3M | Parus 27

Agency: N/A

Status: Launch Successful

Launch date: June 4, 1981, 3:41 p.m. UTC

Rocket: Kosmos-3M

Launch pad: 132/2

Location: Plesetsk Cosmodrome, Russian Federation

...

Latest news about this satellite

There are no fresh news available about this satellite. Check back as we update our databases every day.


Newsletter sign-up

Weekly statistics, charts and insights to help you stay on top of the space industry.